Regional Weather Roundup
Issued by NWS

Home | Current Version | Previous Version | Graphics & Text | Print | Product List | Glossary On
Versions: 1 2 3 4 5 6 7 8 9 10 11 12 13 14 15 16 17 18 19 20 21 22 23 24 25 26 27 28 29 30 31 32 33 34 35 36 37 38 39 40 41 42 43 44 45 46 47 48 49 50
000
ASUS43 KFSD 292102
RWRSD

WEATHER ROUNDUP FOR SOUTH DAKOTA
NATIONAL WEATHER SERVICE SIOUX FALLS SD
400 PM CDT FRI APR 29 2016

NOTE: "FAIR" INDICATES FEW OR NO CLOUDS BELOW 12,000 FEET WITH NO
SIGNIFICANT WEATHER AND/OR OBSTRUCTIONS TO VISIBILITY.


SDZ001>005-009-010-012>017-292200-
NORTHWEST AND NORTH CENTRAL SOUTH DAKOTA

CITY           SKY/WX    TMP DP  RH WIND       PRES   REMARKS
BUFFALO          N/A     49  33  54 E14       30.03R
FAITH            N/A     51  33  50 E13       30.08F
MOBRIDGE       PTSUNNY   59  37  44 SE13      30.07S
$$

SDZ012>016-024>037-041>051-057-063-072>074-292200-
SOUTHWEST AND SOUTH CENTRAL SOUTH DAKOTA

CITY           SKY/WX    TMP DP  RH WIND       PRES   REMARKS
RAPID CTY ARPT CLOUDY    44  34  67 E9        30.07F
PIERRE         CLOUDY    50  39  66 SE14      30.08F
CUSTER         FOG       32  30  92 NE14G20   30.01F VSB<1/4 WCI  22
ELLSWORTH AFB  CLOUDY    43  35  73 E5        30.06
PHILIP         CLOUDY    49  37  63 E14       30.07F
PINE RIDGE     CLOUDY    41  35  79 NE14      30.03F
WINNER         CLOUDY    44  39  82 E10       30.08F
$$

SDZ004>011-016>023-039-040-292200-
NORTHEAST SOUTH DAKOTA

CITY           SKY/WX    TMP DP  RH WIND       PRES   REMARKS
ABERDEEN       CLOUDY    59  38  45 SE9       30.11S
WATERTOWN      CLOUDY    52  37  56 SE7       30.11S
BROOKINGS      CLOUDY    49  38  65 SE10      30.12S
SISSETON         N/A     60  36  40 SE8       30.10F
$$

SDZ017-020-022-023-036>040-048>070-292200-
SOUTHEAST SOUTH DAKOTA

CITY           SKY/WX    TMP DP  RH WIND       PRES   REMARKS
SIOUX FALLS    CLOUDY    49  38  65 E9        30.12F
HURON          CLOUDY    51  39  63 SE13G23   30.12S
MITCHELL       CLOUDY    50  41  71 SE14      30.12F
YANKTON        CLOUDY    43  39  87 E9        30.10F
$$

ABBREVIATIONS USED IN REMARKS
   TC - TEMPERATURE IN CELSIUS
  WCI - WIND CHILL INDEX
   HX - HEAT INDEX
  VSB - VISIBILITY




USA.gov is the U.S. government's official web portal to all federal, state and local government web resources and services.